Вернуться в каталог

STARLINK-34579

АктивенСвязьVLEO
NORAD 64925·PAYLOAD·🇺🇸 United States

Запущен Jul 26, 2025 с Cape Canaveral Space Force Station

Loading…

Ближайшие Пролёты (ближайшие 24 часа)

TLE

СвежийSource: CelesTrak SupGP

Эпоха: Sep 15, 2026, 02:42 UTC

1 64925C 25157X   26258.11298611 -.00056467  00000+0 -16685-2 0  2583
2 64925  53.1570 182.8046 0001285  82.9082  67.5964 15.34415056    15

Отслеживайте STARLINK-34579 в реальном времени с AllMySat

Download on the App Store